Location: Chiroubles
(46.1812°N, 4.6660°E)
Time: 03:34:39
(UTC+00:00)

Tiros 1 - Pass Details

Date: 30 November 2020
Orbit: 630 x 663 km, 48.4° (Epoch: 16 January)

Event Time Altitude Azimuth Distance (km) Brightness Sun altitude
Rises 17:17:38 0° 275° (W) 2,992 11.9 -13.4°
Reaches altitude 10° 17:20:01 10° 278° (W) 2,078 10.8 -13.8°
Maximum altitude 17:24:47 66° 1° (N) 717 7.3 -14.6°
Enters shadow 17:27:30 25° 78° (ENE) 1,321 8.1 -15.1°
